Location: Mountain View
(42.7042°N, 73.6523°W)
Time: 21:37:46
(UTC+00:00)

Daily predictions for brighter satellites

Satellite Brightness Start Highest point End
(mag) Time Altitude Azimuth Time Altitude Azimuth Time Altitude Azimuth
Cosmos 1892 Rocket 3.9 23:39:20 10° N 23:43:39 45° ENE 23:47:57 10° SSE
STARLINK-1236 3.6 23:41:13 10° SW 23:45:13 65° SE 23:49:14 10° ENE
Cosmos 332 Rocket 3.9 23:40:36 10° NNW 23:45:30 66° ENE 23:50:23 10° SSE
Cosmos 1110 Rocket 4.3 23:43:50 10° N 23:48:59 50° ENE 23:54:01 10° SE
ERBS 4.3 23:46:18 10° W 23:49:16 28° NW 23:52:14 10° NNE
Orbus 7S? 2.3 23:46:59 10° NW 23:50:01 83° NE 23:52:25 10° SE
Okean 1-7 Rocket 3.8 23:48:08 10° N 23:52:24 47° ENE 23:56:37 10° SSE
S3M 4.1 23:46:28 10° S 23:52:46 69° E 23:59:07 10° NNE
ARGOS Delta rocket 4.3 23:48:25 10° SE 23:53:16 49° ENE 23:58:23 10° N
HJ-1C 3.3 23:50:39 10° SSE 23:53:56 66° ENE 23:57:18 10° N
STARLINK-1269 3.5 23:50:37 10° SW 23:54:40 78° SE 23:58:43 10° NE
